Weather in Myndagay

Russia / Sakha (Yakutia) Republic     61°38′39″N   133°12′23″E
temp.,
°C
wind,
m/s
gust,
m/s
humid.,
%
clouds,
%
prec.,
mm/h
press.,
hPa
HPBL,
m
16 may, sun
sun1600:00+5se39863 0.1 1005227
03:00+3ese24905 0.1 100586
06:00+6se377321 0.0 1004342
09:00+10se365467 0.0 10021327
12:00+11sse4554100 0.0 10011531
15:00+10sse4563100 0.1 10001253
18:00+10se365896 0.0 9991289
21:00+8se1168100 0.0 99923
17 may, mon
mon1700:00+6sse31069100 0.0 998442
03:00+5se3970100 0.0 998461
06:00+6se31064100 0.0 997711
09:00+8se4852100 0.0 9961198
12:00+11se5740100 0.0 9941962
15:00+12se4738100 0.0 9932032
18:00+10sse4546100 0.0 9931505
21:00+7ese2260100 0.0 99549
18 may, tue
tue1800:00+5se2864100 0.0 994265
03:00+4sse2773100 0.0 994400
06:00+3se3682100 0.0 995688
09:00+2sw1498100 0.7 995396
12:00+3wsw5883100 1.8 9981009
15:00+2wsw5773100 2.1 10001169
18:00+3w4667100 0.2 10011145
21:00−1wsw228865 0.2 100319
19 may, wed
wed1900:00−3sw11955 0.0 100414
03:00−4ssw11955 0.0 100410
06:00+1s13735 0.0 1005291
09:00+6wsw134327 0.0 10041718
12:00+8wsw2330100 0.0 10032618
15:00+8w2330100 0.0 10032446
18:00+7wnw213387 0.0 10041965
21:00+2w236524 0.0 100644
20 may, thu
thu2000:000nw117199 0.0 100610
03:00−1wsw117591 0.0 100710
06:00+3sw116014 0.0 1008194
09:00+9sse01361 0.0 10071627
12:00+12wnw012423 0.0 10052624
15:00+12nw2221100 0.0 10043259
18:00+11n32247 0.0 10052549
21:00+5nne224110 0.0 100618